Flag for India Weather past 2 weeks in Nagercoil, Tamil Nadu, India

Now
86 °F

Broken clouds.


Feels Like: 97 °F
Forecast: 77 / 87 °F
Wind: 6 mph from Southwest

Location: Thiruvananthapuram

Current Time: Oct 25, 2014 at 12:54:35 PM

Latest Report: Oct 25, 2014 at 12:10 PM


Visibility: 4 mi

Pressure: 29.83 "Hg

Humidity: 75%

Dew point: 77 °F

Location of NagercoilLocation

Historic Weather in Nagercoil — Graph

°F

Nagercoil temperature yesterday

Maximum temperature yesterday: 90 °F (at 1:40 PM)
Minimum temperature yesterday: 75 °F (at 12:10 AM)
Average temperature yesterday: 82 °F

Past Weeks' High & Low Weather Summary

 TemperatureHumidityPressure
High90 °F (Oct 11, 3:10 PM)100% (Oct 19, 7:40 PM)29.92 "Hg (Oct 19, 7:40 PM)
Low45 °F (Oct 19, 7:40 PM)66% (Oct 13, 9:40 AM)27.23 "Hg (Oct 12, 8:40 PM)
Average82 °F81%29.80 "Hg
* Reported Oct 10 10:40 AM — Oct 25 11:10 AM, Nagercoil, Weather by CustomWeather, © 2014

Note: Actual official high and low records may vary slightly from our data, if they occured in-between our weather recording intervals... More about our weather records

Advertising

Nagercoil weather history for previous 24 hours

 ConditionsComfort  
Time TempWeatherWind HumidityBarometerVisibility
11:10 AM
Oct 25
84 °FScattered clouds.6 mph79%29.86 "Hg4 mi
10:40 AM84 °FScattered clouds.3 mph79%29.89 "Hg4 mi
10:10 AM84 °FScattered clouds.3 mph79%29.89 "Hg4 mi
9:40 AM84 °FScattered clouds.3 mph79%29.89 "Hg4 mi
9:10 AM82 °FScattered clouds.3 mph79%29.89 "Hg4 mi
8:40 AM82 °FScattered clouds.No wind79%29.89 "Hg4 mi
8:10 AM81 °FScattered clouds.No wind84%29.86 "Hg3 mi
7:40 AM81 °FBroken clouds.5 mph79%29.86 "Hg2 mi
7:10 AM79 °FBroken clouds.3 mph84%29.86 "Hg2 mi
6:40 AM79 °FScattered clouds.No wind84%29.83 "Hg2 mi
6:10 AM79 °FPassing clouds.No wind84%29.83 "Hg2 mi
5:40 AM79 °FPassing clouds.No wind84%29.80 "Hg2 mi
5:10 AM79 °FPassing clouds.No wind84%29.80 "Hg2 mi
4:40 AM79 °FPassing clouds.No wind84%29.80 "Hg2 mi
4:10 AM79 °FPartly cloudy.No wind84%29.77 "Hg2 mi
3:40 AM79 °FPartly cloudy.3 mph84%29.80 "Hg2 mi
3:10 AM79 °FPartly cloudy.No wind84%29.80 "Hg2 mi
2:40 AM79 °FPassing clouds.No wind84%29.80 "Hg2 mi
2:10 AM79 °FPassing clouds.No wind84%29.80 "Hg2 mi
1:40 AM79 °FPartly cloudy.No wind84%29.80 "Hg2 mi
1:10 AM79 °FPartly cloudy.No wind84%29.83 "Hg2 mi
12:40 AM79 °FThunderstorms. Overcast.No wind84%29.83 "Hg2 mi
12:10 AM81 °FThunderstorms. Overcast.No wind79%29.83 "Hg2 mi
11:40 PM
Oct 24
81 °FPartly cloudy.No wind79%29.86 "Hg2 mi
11:10 PM81 °FPartly cloudy.No wind84%29.86 "Hg2 mi
10:40 PM81 °FPassing clouds.No wind84%29.86 "Hg2 mi
10:10 PM81 °FPassing clouds.No wind84%29.89 "Hg2 mi
9:40 PM81 °FPassing clouds.No wind84%29.89 "Hg2 mi
9:10 PM81 °FPassing clouds.No wind84%29.86 "Hg2 mi
8:40 PM82 °FPassing clouds.No wind79%29.86 "Hg2 mi
8:10 PM82 °FPassing clouds.No wind79%29.83 "Hg2 mi
7:40 PM82 °FPassing clouds.No wind79%29.80 "Hg2 mi
7:10 PM82 °FThunderstorms. Overcast.No wind79%29.80 "Hg2 mi
6:40 PM84 °FPartly cloudy.No wind74%29.80 "Hg3 mi
6:10 PM84 °FBroken clouds.No wind74%29.77 "Hg3 mi
5:40 PM86 °FThunderstorms. Cloudy.No wind70%29.77 "Hg3 mi
5:10 PM86 °FThunderstorms. Broken clouds.No wind70%29.77 "Hg3 mi
4:10 PM88 °FThunderstorms. Broken clouds.No wind75%29.77 "Hg4 mi
3:10 PM88 °FScattered clouds.6 mph75%29.77 "Hg4 mi
2:40 PM90 °FPassing clouds.No wind71%29.77 "Hg4 mi
2:10 PM90 °FPassing clouds.6 mph71%29.77 "Hg4 mi
1:40 PM90 °FPassing clouds.5 mph71%29.77 "Hg4 mi
1:10 PM88 °FPassing clouds.5 mph75%29.80 "Hg4 mi
12:40 PM88 °FScattered clouds.5 mph75%29.80 "Hg4 mi
12:10 PM86 °FPassing clouds.6 mph75%29.83 "Hg4 mi
Weather by CustomWeather, © 2014

See weather overviewHow to use our weather pages